Starlink 30349

operational
NORAD ID: 57713 Int'l Des: 2023-129 Owner: SPXS Country: US Constellation: starlink
LEOCIRCULAR

About Starlink 30349

Description loading...

Live Position

Loading 3D Globe...

Upcoming Passes

Altitude History

Altitude vs Time

uPlot chart will show altitude changes over time

Two-Line Element Set

1 57713U 23129R 25353.57296699 -.00000295 00000-0 -67394-5 0 9993
2 57713 43.0018 195.5517 0000937 261.0640 99.0096 15.02534708128461
Epoch: Dec 19, 2025 • Age: 9 hours

Current Status

Altitude 564.1 km
Velocity 7.58 km/s
Sub-Earth Point -22.88°S, 28.69°W
Launch Date Aug 27, 2023
Age 2.3 years
Type internet

Technical Details

Classification Payload
Mass 730.00 kg
Dry Mass 700.00 kg
Total Mass 730.00 kg
Length 0.30 m
Diameter 4.10 m
Span 29.00 m
Shape Box + pan
Manufacturer SPXS
Bus Type Starlink V2M
Phase Status In Orbit
Owner/State SPXS/US

Large Constellations

Loading constellations...